Location: Klinovec
(50.3970°N, 12.9600°E)
Time: 03:50:46
(UTC+01:00)

N. Korean satellite - Pass Details

Date: 18 November 2019
Orbit: 456 x 506 km, 97.2° (Epoch: 07 December)

Event Time Altitude Azimuth Distance (km) Brightness Sun altitude
Rises 05:57:25 0° 15° (NNE) 2,624 10.3 -14.0°
Reaches altitude 10° 05:59:33 10° 19° (NNE) 1,731 9.4 -13.7°
Maximum altitude 06:03:15 62° 100° (E) 571 7.2 -13.1°
Drops below altitude 10° 06:06:53 10° 183° (S) 1,700 9.5 -12.5°
Sets 06:08:57 0° 186° (S) 2,571 10.4 -12.2°
